This demonstration page uses our WeatherBlox Daily Observations layout. Learn more.

Left ArrowRight Arrow

Hourly Observations for September 22, 2015

Temp ( °F °C ) Dew Point ( °F °C ) Humidity (%) Winds ( mph kmh ) Pressure ( in mb ) Visibility ( mi km ) Precip ( " mm )
12:53 am 00:53 Clear 50 10 49 9.4 96 96 Calm 30.12 1020 10 16.0934 0 0
1:53 am 01:53 Clear 48 8.9 48 8.9 100 100 Calm 30.12 1020 10 16.0934 0 0
2:53 am 02:53 Clear 48 8.9 46 7.8 93 93 Calm 30.13 1020 10 16.0934 0 0
3:53 am 03:53 Clear 47 8.3 46 7.8 97 97 Calm 30.14 1021 10 16.0934 0 0
4:53 am 04:53 Clear 46 7.8 45 7.2 96 96 Calm 30.15 1021 10 16.0934 0 0
5:53 am 05:53 Clear 46 7.8 45 7.2 96 96 Calm 30.16 1022 10 16.0934 0 0
6:53 am 06:53 Clear 45 7.2 44 6.7 97 97 Calm 30.19 1022 10 16.0934 0 0
7:53 am 07:53 Sunny 46 7.8 45 7.2 96 96 Calm 30.21 1023 9 14.48406 0 0
8:53 am 08:53 Sunny 56 13.3 52 11.1 87 87 Calm 30.22 1023 10 16.0934 0 0
9:53 am 09:53 Sunny 63 17.2 56 13.3 78 78 Calm 30.23 1024 10 16.0934 0 0
10:53 am 10:53 Sunny 69 20.6 57 13.9 66 66 Calm 30.23 1024 10 16.0934 0 0
11:53 am 11:53 Sunny 73 22.8 57 13.9 57 57 Calm 30.23 1024 10 16.0934 0 0
12:53 pm 12:53 Sunny 78 25.6 53 11.7 42 42 N 9 15 30.22 1023 10 16.0934 0 0
1:53 pm 13:53 Sunny 79 26.1 52 11.1 39 39 undefined N/A 30.2 1023 10 16.0934 0 0
2:53 pm 14:53 Sunny 80 26.7 52 11.1 38 38 ENE 8 13 30.18 1022 10 16.0934 0 0
3:53 pm 15:53 Sunny 81 27.2 51 10.6 35 35 NE 8 13 30.16 1022 10 16.0934 0 0
4:53 pm 16:53 Sunny 81 27.2 51 10.6 35 35 ENE 8 13 30.16 1021 10 16.0934 0 0
5:53 pm 17:53 Sunny 81 27.2 52 11.1 37 37 E 7 11 30.16 1021 10 16.0934 0 0
6:53 pm 18:53 Sunny 75 23.9 56 13.3 52 52 ENE 5 7 30.17 1022 10 16.0934 0 0
7:53 pm 19:53 Clear 64 17.8 56 13.3 75 75 Calm 30.18 1022 10 16.0934 0 0
8:53 pm 20:53 Clear 60 15.6 56 13.3 86 86 Calm 30.19 1022 10 16.0934 0 0
9:53 pm 21:53 Clear 58 14.4 55 12.8 90 90 Calm 30.2 1023 10 16.0934 0 0
10:53 pm 22:53 Clear 56 13.3 55 12.8 97 97 Calm 30.21 1023 10 16.0934 0 0
11:53 pm 23:53 Clear 55 12.8 54 12.2 96 96 Calm 30.22 1023 10 16.0934 0 0

Powered by AerisWeather